Temperature
15 15 15 15 15 14 14 14 13 13 13 13 13 13 13 13 13 13 13 13 13 13 13 12 12 12 12 12 12 12 12 12 12 12 12 12 11 11 11 11 11 11 11
15 15 15 15 14 14 14 14 13 13 13 13 13 13 13 13 13 13 12 12 13 12 12 12 12 12 11 11 11 11 11 11 11 11 11 11 11 11 11 11 11 10 10
15 14 14 14 14 14 14 13 13 13 13 13 13 13 13 13 13 13 12 12 12 12 12 12 12 12 11 11 11 10 10 11 10 10 10 10 10 10 10 10 10 10 10
14 14 14 14 14 14 14 13 13 13 13 13 13 13 13 13 13 13 13 13 12 12 12 12 12 12 11 11 11 10 10 10 10 10 10 10 9 9 9 9 9 9 9
14 14 14 14 14 14 14 14 13 13 13 13 13 13 13 13 13 13 13 13 12 12 12 12 12 12 11 11 10 10 10 9 9 9 9 9 9 9 8 8 8 8 8
14 14 14 14 14 14 14 14 13 13 13 13 13 13 13 13 13 13 13 12 12 12 12 12 12 11 11 11 10 10 10 9 9 9 8 8 8 8 8 7 7 7 7
14 14 14 14 14 14 14 13 13 13 13 13 12 12 12 12 12 12 12 12 12 12 12 12 11 11 11 11 10 10 10 9 9 8 8 8 8 7 7 6 6 6 6
15 14 14 14 14 14 14 13 13 13 12 12 12 11 11 12 12 12 12 12 11 11 11 11 11 11 10 10 10 10 9 9 9 8 8 8 7 7 7 6 6 6 5
14 14 14 14 14 14 13 13 13 12 12 12 11 11 11 12 11 11 11 11 11 10 10 10 10 10 10 10 10 9 9 9 8 8 8 8 7 7 6 6 6 5 5
14 14 14 13 13 13 13 13 13 12 12 11 11 11 10 10 10 10 10 10 10 10 9 9 9 9 9 9 9 9 9 9 8 8 8 7 7 7 6 6 5 5 5
13 13 13 13 13 13 12 12 12 12 11 11 10 10 10 10 9 9 9 9 9 9 9 9 8 8 8 8 8 8 8 8 8 8 7 7 7 7 6 6 5 5 5
12 12 12 12 12 12 11 11 11 11 11 10 10 10 9 9 9 9 8 8 8 8 8 8 8 8 7 7 7 7 7 7 7 7 7 7 7 6 6 6 5 5 4
11 11 11 11 11 11 10 10 10 10 10 9 9 9 9 9 8 8 8 8 7 7 7 7 7 7 7 7 7 7 7 7 7 7 6 6 6 6 6 5 5 5 4
11 10 10 10 10 10 9 9 9 9 9 9 8 8 8 8 8 8 7 7 6 6 6 6 6 6 6 6 6 6 6 6 6 6 6 5 5 5 5 5 4 4 4
9 9 9 9 9 9 9 8 8 8 8 8 8 8 7 7 7 7 7 6 6 6 5 5 5 5 5 5 5 5 5 5 5 5 5 5 4 4 4 4 3 3 3
8 8 8 8 8 8 8 8 7 7 7 7 7 7 7 7 7 6 6 6 5 5 4 4 4 4 4 4 4 4 4 4 4 4 4 4 3 3 3 3 3 2 2
7 7 7 7 7 7 7 7 7 7 7 7 7 7 6 6 6 6 6 5 5 5 4 4 4 4 4 4 3 3 3 3 3 3 3 3 3 2 2 2 2 2 2
6 6 6 6 6 6 6 6 6 6 6 6 6 6 6 6 5 5 5 5 5 4 4 3 3 3 3 3 3 2 2 2 2 2 2 2 2 2 2 1 1 1 1
5 5 5 5 5 5 5 5 5 5 5 5 5 5 5 5 5 4 4 4 4 3 3 3 3 2 2 2 2 2 2 2 2 1 1 1 1 1 1 1 1 1 1
4 4 4 5 5 5 5 5 5 5 5 5 5 4 4 4 4 3 3 3 3 2 2 2 2 2 1 1 1 1 1 1 1 1 1 1 1 1 1 0 0 0 0
3 3 4 4 4 4 4 4 4 4 4 4 4 3 3 3 3 2 2 2 1 1 1 1 1 0 0 0 0 0 0 -0 -0 0 0 0 0 0 0 0 0 -0 -0
2 3 3 3 3 4 4 3 3 3 3 3 3 2 2 2 1 1 1 1 1 0 -0 -0 -1 -1 -1 -1 -1 -1 -1 -1 -2 -1 -1 -1 -1 -1 -1 -1 -1 -1 -1
2 2 2 2 2 3 3 3 3 3 2 2 2 1 1 1 0 0 -0 -0 -0 -1 -1 -1 -2 -2 -2 -2 -2 -2 -2 -3 -3 -3 -2 -2 -2 -2 -2 -2 -1 -1 -2
1 1 1 2 2 2 2 2 2 2 2 1 1 1 0 -0 -0 -1 -1 -1 -2 -2 -2 -2 -3 -3 -3 -3 -3 -3 -4 -3 -4 -4 -3 -3 -3 -3 -3 -3 -2 -2 -2
1 1 1 1 1 1 1 1 1 1 1 1 1 0 -0 -1 -1 -1 -2 -2 -3 -3 -3 -3 -3 -3 -3 -3 -4 -4 -5 -5 -5 -5 -4 -4 -4 -4 -3 -3 -3 -3 -3
0 1 1 1 1 1 1 1 1 1 0 0 -0 -1 -1 -1 -2 -2 -3 -3 -4 -4 -4 -4 -4 -4 -4 -4 -4 -5 -5 -5 -6 -6 -5 -5 -5 -5 -4 -4 -4 -4 -3
Wind_Speed
5 5 5 5 6 5 5 5 6 5 6 6 6 6 7 7 7 7 7 9 12 11 12 11 10 9 8 7 7 6 5 4 4 3 2 2 1 2 2 3 4 4 5
6 5 6 6 6 7 6 6 7 6 6 6 7 8 8 8 9 9 9 9 13 16 15 15 14 13 12 11 10 9 8 8 7 6 5 4 3 3 3 3 3 3 4
8 7 6 6 7 8 8 8 8 7 7 7 9 10 9 10 10 11 11 10 11 15 18 18 18 16 15 14 13 12 12 11 10 9 8 7 6 5 4 4 3 3 3
10 8 7 7 8 8 8 7 7 7 7 7 8 8 8 8 11 12 12 12 12 11 13 18 20 19 18 17 16 15 14 14 13 12 11 10 8 7 6 6 5 4 3
11 10 9 9 9 8 8 7 7 7 8 8 8 8 8 8 10 10 12 13 12 12 12 12 16 19 19 19 18 18 16 16 17 16 14 13 12 11 9 8 7 6 5
10 11 9 10 10 7 7 8 9 8 7 7 7 8 9 9 9 9 10 11 10 11 11 12 11 13 17 20 20 20 19 18 18 19 18 16 15 14 12 11 10 8 7
9 10 9 9 9 8 9 9 8 8 7 6 5 7 8 10 10 8 7 7 7 8 9 9 10 10 10 14 18 20 21 20 19 19 20 19 18 17 15 14 12 11 10
7 8 9 8 8 8 10 10 9 6 6 5 5 5 6 7 7 6 5 5 5 5 5 6 8 9 10 10 10 14 18 20 20 19 19 20 20 19 18 16 14 13 12
5 6 8 8 7 7 8 9 9 10 8 6 7 6 6 6 4 3 4 4 4 3 4 5 6 8 8 9 10 10 13 16 20 20 19 19 20 20 19 18 16 15 13
3 4 5 6 6 6 7 8 8 8 8 7 6 7 8 6 5 5 4 4 3 4 5 4 6 6 7 7 8 10 11 14 17 20 20 19 19 20 20 19 17 16 14
2 3 3 4 5 5 6 7 7 8 7 8 7 5 5 5 6 6 7 6 5 4 4 5 5 6 6 7 7 9 10 13 16 18 20 19 18 18 18 17 17 16 14
1 2 3 3 4 4 5 6 6 7 7 8 7 6 5 4 5 6 7 6 6 5 5 4 4 5 6 7 7 10 11 13 14 16 18 18 16 13 14 14 14 14 14
2 3 3 3 3 3 4 4 4 4 5 5 5 4 4 4 3 3 5 5 4 4 4 3 2 5 6 7 8 12 10 12 13 15 16 14 11 9 7 8 9 10 11
2 3 3 3 3 3 3 3 2 2 2 2 2 2 1 1 1 2 2 3 4 4 4 3 2 5 6 7 10 11 9 11 12 12 11 7 4 2 5 6 7 6 6
2 2 2 2 2 3 2 1 1 2 2 3 3 3 2 3 3 2 1 2 3 4 4 1 1 4 7 7 10 9 9 11 10 9 8 7 7 7 7 8 8 6 5
1 1 1 1 2 3 3 2 3 3 4 4 3 4 4 3 3 3 2 1 1 3 3 0 2 4 6 6 8 8 8 9 10 9 8 7 6 8 7 6 5 4 4
1 1 2 2 3 3 3 4 4 4 5 5 5 5 5 5 3 3 3 2 1 1 3 0 1 3 4 5 6 7 8 8 9 11 9 9 8 7 6 5 4 3 4
2 2 3 3 4 4 4 5 5 5 6 6 6 6 6 4 5 4 3 3 2 2 1 1 1 2 3 4 4 4 6 6 7 9 9 8 6 5 3 3 2 3 4
3 3 4 4 5 5 5 6 6 7 7 6 6 6 5 5 5 4 4 3 2 2 1 0 0 1 1 2 3 3 4 4 6 7 7 6 6 4 2 0 2 3 4
4 4 5 5 5 5 5 6 6 7 7 7 6 6 6 6 5 4 4 3 2 2 2 1 0 0 1 2 2 2 2 3 3 4 4 4 3 3 2 3 3 4 6
4 4 5 5 5 5 4 5 6 6 6 6 6 6 7 7 6 5 4 3 3 2 1 1 0 0 1 1 2 2 2 2 2 3 3 3 3 4 4 5 6 7 8
4 4 4 5 5 5 7 7 5 5 5 5 5 5 5 6 7 8 8 7 6 3 2 1 1 1 1 2 2 2 3 3 2 2 4 5 4 4 4 5 5 7 10
5 5 5 5 6 7 8 7 7 5 5 4 4 3 3 4 4 3 5 5 6 7 5 2 1 1 2 2 3 3 3 4 4 4 5 4 3 4 4 5 6 9 10
5 5 5 5 5 6 7 7 7 5 4 4 3 2 2 2 3 3 2 2 2 3 4 2 2 2 2 2 2 3 4 5 5 3 3 3 4 5 5 6 4 6 7
5 4 3 4 4 5 6 6 5 3 3 3 2 1 1 1 2 2 1 1 1 1 2 3 4 4 4 4 5 4 3 4 4 2 1 3 4 6 6 4 2 4 6
5 4 3 2 2 3 4 6 5 2 2 2 2 1 1 2 2 1 2 3 2 2 2 2 2 2 2 1 2 3 3 3 3 3 1 3 4 5 5 3 3 5 6
Wind_Direction
216 220 225 227 233 238 239 248 257 265 269 271 268 270 272 268 267 265 263 243 248 255 256 254 250 246 241 243 243 233 223 224 222 209 199 180 149 122 106 92 81 75 73
227 231 236 236 240 241 248 255 261 268 272 272 274 270 268 267 262 262 263 254 241 245 249 251 251 249 245 242 238 232 224 223 224 220 214 207 198 186 169 144 116 98 87
235 238 245 244 245 246 250 256 263 267 270 271 271 271 269 268 265 263 261 260 255 242 241 246 249 249 247 244 240 234 225 220 221 221 218 215 211 206 193 177 161 141 119
239 244 247 250 252 252 251 253 261 262 263 265 271 274 271 268 269 268 265 260 260 259 248 241 246 249 249 247 244 240 231 220 218 218 217 215 213 213 208 201 192 184 170
241 243 249 253 254 251 251 252 255 259 267 270 273 278 278 274 274 269 266 263 260 259 263 254 244 249 251 250 248 246 241 228 219 217 216 215 214 215 215 212 207 204 201
244 247 251 255 256 252 252 251 253 255 262 274 280 277 275 273 270 268 270 268 263 262 265 268 263 253 246 248 250 250 248 242 227 219 217 215 215 214 216 215 213 213 212
249 248 252 257 253 250 254 257 255 255 255 253 263 274 271 263 263 263 264 271 272 274 273 273 271 271 264 249 249 251 252 251 242 229 221 217 215 214 215 216 217 217 217
257 253 254 257 255 254 257 257 250 249 251 233 245 274 282 273 243 243 254 264 281 286 283 284 281 276 276 273 262 256 257 257 255 246 231 222 217 214 215 217 219 220 220
274 265 263 263 262 256 258 260 254 248 253 244 230 244 267 278 295 243 247 258 277 290 298 305 298 293 287 281 280 270 264 264 262 259 249 235 225 218 215 214 218 221 219
308 294 281 273 268 262 261 263 259 254 253 253 239 235 249 273 271 278 250 249 273 292 306 311 309 307 303 296 290 290 287 277 269 265 259 250 236 225 220 216 215 215 212
326 323 305 286 277 270 267 266 263 254 249 252 250 238 236 242 243 256 272 271 271 281 305 314 315 316 319 312 308 316 308 291 279 270 265 258 245 233 221 216 215 213 210
297 343 332 311 296 287 279 274 268 261 254 253 252 244 238 238 238 241 257 268 274 285 301 307 317 330 336 331 331 335 316 304 293 283 274 268 256 241 226 214 210 211 209
289 334 335 324 317 308 298 287 275 271 268 260 258 255 252 256 264 252 259 268 268 278 284 287 354 357 352 346 345 344 326 319 307 295 286 281 270 245 220 205 198 202 200
306 323 324 325 327 324 317 304 296 306 312 303 310 305 294 332 319 268 261 264 266 261 264 274 41 21 3 353 352 342 337 337 324 312 307 311 329 173 156 164 156 150 148
308 317 325 336 350 354 351 351 21 26 45 45 40 43 47 41 35 20 352 277 264 267 264 297 13 21 5 357 357 350 349 354 355 5 15 37 55 95 107 117 120 124 133
322 320 0 22 31 35 42 60 65 63 76 66 60 67 62 51 51 40 33 17 294 264 260 14 20 2 354 356 2 2 6 7 16 20 36 54 79 97 101 107 122 142 163
30 49 57 63 61 57 63 77 76 76 81 75 68 71 67 58 61 51 50 54 42 293 251 189 40 3 359 1 1 9 17 23 31 37 49 66 82 94 108 122 141 181 221
77 77 83 82 74 69 70 83 85 81 84 81 76 75 69 65 63 54 55 58 51 14 280 236 32 9 2 357 357 11 21 27 33 41 49 59 69 85 108 144 186 219 233
98 93 92 88 84 80 81 84 90 88 84 80 76 76 71 71 68 60 55 52 43 35 17 190 62 21 355 354 354 9 22 24 31 32 39 44 49 52 51 355 243 239 242
107 99 96 93 91 90 90 94 96 96 91 82 75 71 67 66 68 64 56 47 39 47 58 82 106 25 4 355 348 348 354 11 10 11 16 16 15 1 342 320 293 277 267
108 106 106 103 101 96 98 105 103 102 101 94 81 70 62 59 62 58 52 38 29 27 31 26 11 301 357 349 351 344 328 331 346 357 329 317 311 295 284 272 270 271 269
117 111 109 108 102 96 104 104 109 110 106 101 89 75 66 58 60 62 57 48 34 23 10 348 297 312 348 348 342 342 329 320 310 7 327 305 297 288 285 280 281 278 273
126 118 113 111 106 106 108 106 103 104 100 89 84 77 68 59 50 52 59 58 55 48 33 340 333 351 346 355 349 328 332 319 311 335 323 300 301 295 295 283 283 285 280
135 129 123 120 116 115 115 116 111 100 98 91 83 72 68 58 51 26 27 37 42 47 35 18 16 9 351 331 310 305 311 303 291 285 300 293 312 307 306 293 284 286 283
139 137 134 129 125 125 133 137 136 129 122 121 115 85 16 21 60 14 344 327 303 58 51 21 3 351 342 325 309 291 298 304 302 303 316 295 314 317 304 289 272 259 272
150 151 146 150 155 166 165 165 170 164 165 172 184 200 319 331 352 313 306 303 302 319 317 303 284 272 288 310 311 289 287 285 292 302 346 305 311 329 316 301 288 276 272
Height
1574 1575 1575 1576 1576 1576 1576 1576 1576 1576 1576 1575 1574 1574 1573 1572 1572 1571 1570 1569 1568 1567 1567 1566 1564 1563 1562 1561 1559 1558 1557 1555 1554 1554 1553 1553 1552 1552 1552 1552 1551 1551 1551
1573 1573 1574 1574 1575 1575 1575 1575 1575 1574 1574 1573 1573 1572 1571 1570 1569 1569 1568 1567 1566 1565 1564 1563 1562 1561 1560 1559 1557 1556 1555 1554 1553 1552 1552 1551 1551 1551 1551 1551 1551 1550 1550
1571 1572 1572 1573 1573 1573 1573 1573 1573 1572 1572 1571 1570 1570 1569 1568 1567 1566 1565 1564 1563 1562 1561 1560 1559 1558 1557 1556 1555 1554 1553 1552 1551 1551 1550 1550 1550 1550 1550 1550 1549 1549 1549
1569 1570 1570 1571 1571 1571 1570 1570 1570 1569 1569 1568 1567 1567 1566 1564 1563 1562 1561 1560 1559 1558 1557 1556 1556 1555 1554 1553 1552 1552 1551 1549 1549 1548 1548 1548 1548 1548 1548 1548 1548 1548 1548
1567 1568 1568 1568 1568 1568 1568 1567 1567 1566 1565 1565 1564 1563 1562 1560 1559 1558 1557 1556 1555 1554 1553 1552 1551 1550 1550 1549 1549 1548 1548 1547 1546 1545 1545 1545 1545 1545 1546 1546 1546 1547 1547
1564 1565 1565 1565 1565 1564 1564 1564 1563 1562 1561 1560 1559 1558 1557 1556 1554 1553 1553 1551 1550 1549 1548 1547 1546 1545 1544 1544 1544 1544 1544 1543 1542 1542 1542 1542 1542 1542 1543 1543 1544 1545 1545
1561 1561 1561 1561 1561 1560 1560 1559 1558 1557 1557 1556 1554 1553 1552 1551 1549 1549 1548 1547 1546 1544 1543 1542 1541 1540 1539 1538 1538 1538 1539 1539 1539 1538 1538 1538 1538 1539 1539 1540 1541 1542 1543
1556 1556 1556 1556 1556 1555 1555 1554 1553 1552 1551 1551 1551 1549 1548 1548 1545 1544 1544 1543 1542 1541 1539 1538 1537 1535 1534 1533 1533 1533 1533 1534 1534 1534 1534 1533 1533 1534 1535 1537 1538 1539 1540
1551 1551 1551 1551 1550 1550 1549 1549 1548 1547 1546 1546 1546 1546 1545 1543 1542 1540 1539 1539 1538 1537 1536 1534 1533 1531 1530 1529 1528 1527 1527 1528 1528 1529 1530 1529 1529 1529 1530 1532 1534 1536 1537
1546 1546 1545 1545 1544 1544 1543 1543 1542 1541 1541 1540 1540 1540 1540 1539 1538 1536 1536 1535 1534 1533 1532 1530 1528 1527 1525 1524 1523 1522 1522 1522 1522 1523 1524 1524 1524 1524 1525 1526 1528 1531 1532
1540 1540 1539 1539 1538 1538 1537 1536 1536 1535 1535 1534 1534 1534 1534 1533 1533 1532 1531 1531 1530 1529 1528 1526 1524 1523 1521 1520 1518 1517 1516 1516 1516 1516 1517 1518 1519 1519 1519 1521 1523 1525 1527
1535 1534 1534 1533 1533 1532 1531 1531 1530 1530 1529 1529 1529 1529 1529 1528 1528 1527 1526 1526 1526 1525 1523 1522 1520 1519 1517 1515 1514 1512 1511 1511 1510 1511 1511 1512 1512 1513 1514 1515 1518 1520 1522
1530 1529 1529 1528 1527 1527 1526 1525 1525 1524 1524 1524 1524 1523 1523 1523 1523 1523 1522 1522 1521 1520 1519 1518 1516 1514 1513 1511 1509 1508 1507 1506 1505 1505 1505 1506 1506 1507 1508 1511 1513 1515 1517
1526 1525 1524 1523 1523 1522 1521 1520 1520 1519 1519 1519 1519 1519 1518 1518 1518 1518 1518 1518 1517 1516 1515 1514 1512 1510 1509 1507 1505 1504 1503 1501 1500 1500 1499 1500 1500 1501 1503 1506 1508 1511 1513
1521 1520 1520 1519 1518 1517 1517 1516 1515 1515 1514 1514 1514 1514 1514 1513 1513 1513 1513 1513 1515 1513 1512 1511 1509 1507 1505 1503 1502 1500 1499 1497 1496 1496 1495 1495 1496 1498 1500 1502 1504 1506 1509
1516 1516 1515 1515 1514 1513 1513 1512 1512 1511 1511 1510 1510 1510 1510 1509 1509 1509 1509 1509 1509 1510 1509 1507 1505 1504 1502 1500 1499 1497 1496 1495 1494 1493 1493 1494 1495 1496 1497 1499 1501 1503 1504
1512 1512 1511 1511 1510 1510 1509 1509 1508 1508 1507 1507 1507 1507 1506 1506 1506 1505 1505 1505 1505 1505 1505 1503 1502 1500 1499 1498 1496 1495 1494 1493 1492 1492 1492 1492 1493 1494 1495 1496 1498 1499 1500
1509 1508 1508 1507 1507 1507 1506 1506 1505 1505 1505 1504 1504 1504 1503 1503 1503 1503 1502 1502 1502 1501 1501 1500 1499 1497 1496 1495 1494 1493 1492 1491 1491 1490 1490 1491 1491 1492 1493 1493 1494 1495 1496
1505 1505 1505 1505 1504 1504 1504 1503 1503 1503 1502 1502 1502 1501 1501 1501 1500 1500 1500 1499 1499 1498 1498 1497 1496 1495 1494 1493 1492 1491 1490 1489 1489 1489 1488 1488 1489 1489 1489 1490 1490 1490 1491
1502 1503 1502 1502 1502 1502 1502 1501 1501 1501 1500 1500 1500 1499 1499 1498 1498 1498 1497 1497 1496 1496 1495 1495 1494 1493 1492 1491 1490 1489 1488 1487 1486 1486 1486 1485 1485 1485 1485 1485 1485 1485 1485
1500 1500 1500 1500 1500 1500 1500 1499 1499 1499 1499 1498 1498 1497 1497 1496 1496 1496 1495 1495 1494 1493 1493 1492 1491 1490 1489 1488 1487 1486 1485 1484 1483 1483 1482 1481 1481 1480 1480 1480 1480 1479 1479
1498 1498 1498 1498 1498 1498 1498 1498 1498 1498 1497 1497 1496 1496 1495 1495 1494 1493 1493 1492 1492 1491 1490 1489 1488 1488 1486 1485 1484 1483 1482 1482 1481 1479 1478 1478 1476 1476 1475 1475 1474 1474 1474
1496 1496 1497 1497 1497 1497 1497 1497 1497 1496 1496 1495 1495 1494 1494 1493 1492 1491 1490 1489 1488 1487 1487 1487 1486 1485 1484 1482 1481 1480 1479 1479 1478 1476 1475 1474 1473 1472 1471 1470 1469 1469 1469
1494 1495 1495 1496 1496 1496 1496 1496 1495 1495 1495 1494 1493 1493 1492 1491 1490 1489 1488 1486 1485 1484 1483 1483 1482 1481 1480 1479 1479 1478 1477 1476 1475 1473 1472 1471 1470 1469 1467 1466 1465 1465 1464
1493 1494 1494 1495 1495 1495 1495 1495 1494 1494 1493 1492 1492 1491 1490 1489 1488 1486 1485 1484 1483 1482 1481 1480 1479 1478 1477 1476 1476 1475 1474 1474 1473 1472 1470 1469 1468 1466 1465 1463 1462 1461 1461
1492 1493 1493 1494 1494 1494 1494 1493 1493 1493 1492 1491 1490 1489 1488 1487 1485 1484 1483 1482 1481 1480 1479 1477 1477 1476 1475 1474 1473 1473 1472 1472 1471 1470 1468 1467 1465 1464 1462 1461 1460 1459 1458